RH
100 100 100 100 81 87 93 65 41 49 99 100 90 81 52 39 30 31 31 40 42 33 29 31 39 60 67 72 54 76 100 100
100 100 100 100 100 96 100 84 81 64 58 61 86 99 77 51 46 36 36 47 49 50 35 34 35 54 57 55 76 72 63 100
100 98 100 82 97 100 100 100 98 93 76 65 56 85 97 57 50 59 51 58 63 60 49 36 39 42 70 74 91 98 72 74
86 69 71 58 86 100 100 100 95 96 80 73 71 66 70 64 43 55 79 75 76 77 62 44 45 37 48 74 90 100 50 34
76 69 61 64 43 66 100 100 100 100 100 100 90 93 93 87 74 85 77 86 100 100 89 58 53 47 42 74 99 100 88 58
98 78 73 59 54 52 56 83 100 100 100 100 100 91 100 100 74 64 81 87 100 100 100 86 62 69 53 63 92 100 92 99
100 100 100 100 83 69 63 61 64 89 100 100 100 100 100 100 100 77 83 96 100 100 100 100 85 83 66 82 72 99 100 100
100 100 100 100 100 100 93 95 92 83 82 100 100 100 92 98 100 100 99 90 100 100 100 100 100 99 74 79 78 91 100 100
100 100 100 100 100 100 99 87 86 100 100 100 100 100 100 100 100 100 91 87 95 100 100 100 100 100 86 100 85 100 100 100
100 89 86 96 99 89 80 81 87 100 100 100 100 100 100 100 100 100 100 96 87 87 100 100 100 100 98 100 100 100 100 100
100 87 82 95 82 78 79 75 87 99 97 100 100 100 100 100 100 100 100 100 92 72 66 84 100 100 100 100 100 100 100 100
81 72 73 76 79 99 95 99 97 95 94 99 95 100 100 100 100 100 100 100 100 90 65 49 100 100 95 97 100 100 100 100
53 55 48 60 75 86 97 100 100 100 80 89 97 100 100 100 100 100 100 100 100 100 56 62 100 100 100 100 100 100 100 100
27 38 46 45 50 65 69 71 95 100 100 100 85 71 79 100 100 100 100 100 89 59 47 46 99 100 100 100 100 100 100 100
11 14 22 40 83 61 74 64 73 82 100 100 100 98 92 100 100 100 100 99 83 75 54 71 78 100 100 100 100 100 100 100
12 13 12 12 23 65 100 95 70 74 75 89 100 100 100 100 95 100 100 100 100 99 88 100 88 100 100 99 100 100 100 100
11 11 10 12 13 19 72 100 100 80 63 69 89 92 96 100 98 100 100 100 100 82 85 79 85 100 100 100 100 100 100 100
11 7 10 12 11 13 14 43 100 100 82 64 66 74 70 71 97 100 93 95 93 83 98 100 100 100 100 100 100 100 100 100
11 9 8 8 9 12 12 14 20 76 100 86 68 53 53 56 58 72 73 100 100 91 85 100 100 100 100 100 100 100 100 100
Wind_Speed
61 62 62 62 63 57 51 53 51 46 43 43 41 38 37 44 42 40 40 36 36 36 34 38 35 31 31 29 30 32 33 33
63 67 65 64 66 69 63 60 61 55 49 49 49 45 43 45 42 44 41 40 33 37 34 38 36 34 34 33 32 29 31 34
72 68 67 65 67 68 69 64 63 61 57 56 52 52 50 48 46 46 45 45 40 37 37 38 40 37 34 34 32 34 36 35
78 76 72 71 68 69 71 73 66 62 58 56 54 51 53 53 48 46 48 48 48 43 37 35 40 41 42 38 35 35 30 28
83 81 79 76 75 72 74 75 73 67 65 62 60 57 58 56 55 53 51 51 50 49 45 38 38 39 42 40 38 36 27 36
90 89 86 86 82 78 75 80 78 77 71 68 65 60 61 61 56 53 51 54 53 51 50 44 41 41 42 43 41 28 33 40
90 91 89 88 88 84 81 80 84 82 82 79 74 66 65 64 61 56 53 55 57 54 56 52 43 44 44 44 42 32 38 44
92 93 92 90 90 89 87 86 86 85 82 81 79 74 70 64 67 62 58 52 55 57 55 53 50 47 48 46 43 42 42 47
91 92 93 93 94 93 91 89 87 85 83 82 80 77 72 66 72 71 65 59 55 55 55 54 54 50 50 50 43 45 48 51
88 85 88 90 92 93 93 92 90 83 83 81 78 76 72 72 74 78 71 68 60 55 54 54 57 53 53 56 54 51 51 54
86 86 89 90 91 90 91 90 90 89 85 78 75 76 74 75 78 78 75 71 64 59 56 53 59 58 57 54 58 59 54 56
100 94 92 94 96 97 92 93 94 91 88 86 79 77 77 81 79 79 78 75 69 68 66 52 62 61 61 58 56 57 57 59
104 106 103 101 97 99 97 96 93 95 92 90 86 83 79 84 85 83 82 78 74 72 67 58 63 65 64 60 61 64 64 62
108 110 114 109 114 103 102 103 97 95 94 92 90 89 85 88 86 85 86 79 76 71 65 59 64 63 65 63 64 62 66 68
95 94 98 111 119 119 118 109 107 101 96 94 90 87 86 89 87 86 86 80 77 73 67 61 63 67 65 65 64 65 66 67
89 93 94 93 100 113 122 124 119 109 105 100 97 93 85 84 86 84 85 81 77 75 73 69 67 66 67 61 60 67 68 71
87 86 83 86 89 91 104 121 126 123 111 107 105 99 96 90 89 83 82 82 83 81 73 69 69 68 63 64 67 70 70 70
91 84 82 83 85 87 91 97 114 126 124 116 113 110 107 96 95 95 84 77 75 72 71 64 67 61 65 72 70 73 71 72
96 92 87 83 80 84 86 89 95 104 119 126 123 116 115 111 101 97 97 99 91 84 77 73 72 66 71 74 76 77 76 77
Wind_Direction
273 271 272 274 273 272 269 273 274 272 274 279 281 283 289 298 301 300 305 311 315 320 324 325 320 316 317 313 309 308 311 319
268 264 267 271 273 275 274 275 276 276 272 276 276 274 280 291 290 296 299 299 303 314 316 323 321 316 316 314 313 308 300 304
264 263 265 270 272 271 272 272 275 277 279 275 274 273 274 284 285 286 296 296 295 301 306 312 318 314 317 320 320 307 309 295
261 264 264 269 269 268 268 272 274 275 273 277 278 274 275 282 282 282 283 289 294 293 298 304 312 312 313 313 315 307 298 305
262 261 263 265 266 264 267 269 272 271 271 275 276 279 282 276 281 285 285 286 287 288 291 292 301 305 310 311 312 307 286 281
259 261 264 265 265 263 264 265 267 271 272 272 272 276 273 276 281 283 287 291 286 281 285 288 295 295 303 308 309 298 285 280
257 261 263 263 264 261 263 263 265 265 269 270 271 271 271 275 276 279 281 285 284 280 280 285 288 289 294 301 306 285 279 286
257 257 257 258 259 261 263 261 261 262 264 266 268 271 273 273 273 277 278 278 282 280 275 277 281 285 288 294 301 286 276 282
257 257 258 258 259 262 263 262 260 260 260 261 264 268 272 272 270 271 275 275 273 276 275 276 280 281 286 284 291 288 283 278
259 261 262 262 262 262 261 261 258 255 258 257 260 262 266 269 269 271 275 273 269 270 274 275 277 280 281 284 285 287 281 279
253 260 262 263 261 262 262 260 258 255 252 254 256 258 262 264 265 269 271 271 269 268 268 271 272 276 276 278 279 283 283 281
246 252 254 256 259 260 261 261 258 255 255 253 250 254 258 261 261 264 266 268 270 270 274 270 271 272 276 271 272 273 278 279
251 251 254 254 255 254 257 260 260 259 256 253 253 252 254 260 261 263 264 266 267 269 275 271 270 272 270 268 271 274 274 277
261 255 257 255 259 251 255 256 257 258 257 256 255 254 254 256 259 261 262 263 266 270 274 273 271 271 271 269 271 271 273 277
262 259 256 257 256 256 259 251 257 257 256 255 254 254 253 252 256 257 259 263 267 271 273 269 266 267 267 269 272 273 274 273
261 259 259 259 257 254 254 257 257 254 255 254 253 251 250 254 254 254 256 260 263 267 270 266 265 265 264 264 266 269 271 272
262 263 260 259 258 257 254 254 254 256 254 252 247 250 250 255 254 254 256 260 260 263 264 264 265 263 261 260 264 267 269 269
270 267 262 261 259 257 255 254 253 254 254 254 249 247 250 249 256 257 255 259 260 261 255 258 263 260 260 264 263 264 264 268
269 268 266 263 259 257 255 254 254 253 253 254 254 252 248 251 252 251 255 260 262 260 261 259 259 255 257 260 262 262 266 268